This is the latest recevied weather packets stored in our database for station/object N7CW. If no packets are shown the sender has not sent any weather packets the latest 10 day(s).
| Time | Temp. | Humidity | Pressure | Rain* | Wind** | Luminosity | Snow |
|---|---|---|---|---|---|---|---|
| 1777806680 | 13.33° C | 35% | 1017.7 hPa | 0 mm | - | 0 W/m² | - |
| 1777806375 | 12.22° C | 36% | 1017.7 hPa | 0 mm | - | 0 W/m² | - |
| 1777806073 | 11.67° C | 38% | 1017.7 hPa | 0 mm | - | 0 W/m² | - |
| 1777805769 | 11.67° C | 40% | 1017.9 hPa | 0 mm | - | 0 W/m² | - |
| 1777805467 | 13.33° C | 36% | 1017.8 hPa | 0 mm | - | 0 W/m² | - |
| 1777805164 | 12.22° C | 39% | 1017.7 hPa | 0 mm | - | 0 W/m² | - |
| 1777804862 | 11.11° C | 40% | 1017.7 hPa | 0 mm | - | 0 W/m² | - |
| 1777804560 | 11.11° C | 39% | 1017.8 hPa | 0 mm | - | 0 W/m² | - |
| 1777804256 | 11.67° C | 40% | 1017.8 hPa | 0 mm | - | 0 W/m² | - |
| 1777803948 | 11.67° C | 39% | 1017.5 hPa | 0 mm | - | 0 W/m² | - |
| 1777803645 | 12.22° C | 38% | 1017.7 hPa | 0 mm | - | 0 W/m² | - |
| 1777803341 | 12.22° C | 37% | 1017.9 hPa | 0 mm | - | 0 W/m² | - |
| 1777803038 | 12.78° C | 37% | 1017.8 hPa | 0 mm | - | 0 W/m² | - |
| 1777802735 | 12.22° C | 37% | 1018 hPa | 0 mm | - | 0 W/m² | - |
| 1777802428 | 12.22° C | 38% | 1017.7 hPa | 0 mm | - | 0 W/m² | - |
| 1777802125 | 12.78° C | 37% | 1017.8 hPa | 0 mm | - | 0 W/m² | - |
| 1777801823 | 12.78° C | 36% | 1017.9 hPa | 0 mm | - | 0 W/m² | - |
| 1777801519 | 12.78° C | 36% | 1017.7 hPa | 0 mm | - | 0 W/m² | - |
| 1777801215 | 12.78° C | 37% | 1017.5 hPa | 0 mm | - | 0 W/m² | - |
| 1777800907 | 13.89° C | 35% | 1017.4 hPa | 0 mm | - | 0 W/m² | - |
| 1777800604 | 14.44° C | 35% | 1017.5 hPa | 0 mm | - | 0 W/m² | - |
| 1777800300 | 14.44° C | 33% | 1017.7 hPa | 0 mm | - | 0 W/m² | - |
| 1777799995 | 14.44° C | 34% | 1017.8 hPa | 0 mm | - | 0 W/m² | - |
| 1777799691 | 14.44° C | 34% | 1017.9 hPa | 0 mm | - | 0 W/m² | - |
| 1777799388 | 14.44° C | 34% | 1018.1 hPa | 0 mm | - | 0 W/m² | - |
* Rain latest hour (hover to see other rain measurements)
** Current wind speed in m/s (hover to see current wind gust speed)